Taylorville, IL

11:19 PM CDT on May 28, 2017 (GMT -0500)
Taylorville Municipal

Weather History for KTAZ - October, 2011

Change the Weather History Date:

Tuesday, October 25, 2011

  Actual Average (KSPI) Record (KSPI)
Temperature  
Mean Temperature 64 °F -  
Max Temperature 78 °F 61 °F 86 °F (1940)
Min Temperature 51 °F 41 °F 20 °F (1887)
Growing Degree Days 14 (Base 50)    
Moisture  
Dew Point 43 °F    
Average Humidity 49    
Maximum Humidity 82    
Minimum Humidity 24    
Precipitation  
Precipitation 0.00 in - - ()
Sea Level Pressure  
Sea Level Pressure 29.95 in    
Wind  
Wind Speed 15 mph (South)    
Max Wind Speed 31 mph    
Max Gust Speed 41 mph    
Visibility 10 miles    
Events      
Averages and records for this station are not official NWS values.
T = Trace of Precipitation, MM = Missing Value Source: NWS Daily Summary

Daily Weather History Graph

Daily Weather History Graph

Search for Another Location

Airport or City:

Trip Planner

Search our weather history database for the weather conditions in past years. The results will help you decide how hot, cold, wet, or windy it might be!

Date:

Astronomy

Oct. 25, 2011 Rise Set
Actual Time 7:17 AM CDT 6:04 PM CDT
Civil Twilight 6:50 AM CDT 6:32 PM CDT
Nautical Twilight 6:18 AM CDT 7:03 PM CDT
Astronomical Twilight 5:47 AM CDT 7:34 PM CDT
Moon 5:50 AM CDT (10/25) 5:06 PM CDT (10/25)
Length of Visible Light 11h 42m
Length of Day
10h 47m
Waning Crescent, 2% of the Moon is Illuminated
Oct 25
Waning Crescent
Oct 26
New
Nov 2
First Quarter
Nov 10
Full
Nov 18
Last Quarter

Hourly Weather History & Observations

Time (CDT) Temp. Dew Point Humidity Pressure Visibility Wind Dir Wind Speed Gust Speed Precip Events Conditions
12:15 AM 53.6 °F 39.2 °F 58% 30.12 in 10.0 mi SSE 10.4 mph - N/A   Clear
12:35 AM 53.6 °F 39.2 °F 58% 30.12 in 10.0 mi SSE 9.2 mph - N/A   Clear
12:55 AM 53.6 °F 39.2 °F 58% 30.11 in 10.0 mi SSE 10.4 mph - N/A   Clear
1:15 AM 51.8 °F 39.2 °F 62% 30.11 in 10.0 mi SSE 10.4 mph - N/A   Clear
1:35 AM 53.6 °F 39.2 °F 58% 30.11 in 10.0 mi SSE 9.2 mph - N/A   Clear
1:55 AM 51.8 °F 39.2 °F 62% 30.11 in 10.0 mi SSE 10.4 mph - N/A   Clear
2:15 AM 53.6 °F 39.2 °F 58% 30.11 in 10.0 mi SSE 10.4 mph - N/A   Clear
2:35 AM 53.6 °F 39.2 °F 58% 30.10 in 10.0 mi SSE 11.5 mph - N/A   Clear
2:55 AM 53.6 °F 39.2 °F 58% 30.09 in 10.0 mi SSE 10.4 mph - N/A   Clear
3:15 AM 53.6 °F 39.2 °F 58% 30.09 in 10.0 mi SSE 10.4 mph - N/A   Clear
3:35 AM 51.8 °F 39.2 °F 62% 30.09 in 10.0 mi SSE 9.2 mph - N/A   Clear
3:55 AM 53.6 °F 39.2 °F 58% 30.08 in 10.0 mi SSE 10.4 mph 16.1 mph N/A   Clear
4:15 AM 53.6 °F 39.2 °F 58% 30.08 in 10.0 mi SSE 11.5 mph - N/A   Clear
4:35 AM 55.4 °F 39.2 °F 54% 30.07 in 10.0 mi SSE 12.7 mph 20.7 mph N/A   Clear
4:55 AM 53.6 °F 42.8 °F 67% 30.07 in 10.0 mi SSE 12.7 mph - N/A   Clear
5:15 AM 53.6 °F 42.8 °F 67% 30.07 in 10.0 mi SSE 10.4 mph - N/A   Clear
5:35 AM 53.6 °F 42.8 °F 67% 30.06 in 10.0 mi SSE 15.0 mph - N/A   Clear
5:55 AM 53.6 °F 44.6 °F 72% 30.06 in 10.0 mi SSE 13.8 mph - N/A   Clear
6:15 AM 53.6 °F 44.6 °F 72% 30.05 in 10.0 mi SSE 15.0 mph - N/A   Clear
6:35 AM 53.6 °F 44.6 °F 72% 30.05 in 10.0 mi SSE 15.0 mph 20.7 mph N/A   Clear
7:15 AM 51.8 °F 46.4 °F 82% 30.05 in 10.0 mi SSE 10.4 mph - N/A   Clear
7:35 AM 53.6 °F 46.4 °F 77% 30.04 in 10.0 mi SSE 12.7 mph - N/A   Clear
7:55 AM 53.6 °F 46.4 °F 77% 30.04 in 10.0 mi South 11.5 mph 16.1 mph N/A   Clear
8:15 AM 55.4 °F 48.2 °F 77% 30.03 in 10.0 mi South 12.7 mph 17.3 mph N/A   Clear
8:35 AM 57.2 °F 48.2 °F 72% 30.03 in 10.0 mi South 11.5 mph 15.0 mph N/A   Clear
8:55 AM 59.0 °F 48.2 °F 67% 30.02 in 10.0 mi South 16.1 mph 23.0 mph N/A   Clear
9:15 AM 60.8 °F 50.0 °F 68% 30.02 in 10.0 mi South 16.1 mph 19.6 mph N/A   Clear
9:35 AM 62.6 °F 51.8 °F 68% 30.01 in 10.0 mi South 16.1 mph - N/A   Clear
9:55 AM 64.4 °F 51.8 °F 64% 30.00 in 10.0 mi South 15.0 mph 25.3 mph N/A   Clear
10:15 AM 66.2 °F 51.8 °F 60% 30.00 in 10.0 mi South 19.6 mph 28.8 mph N/A   Clear
10:35 AM 69.8 °F 51.8 °F 53% 29.99 in 10.0 mi South 18.4 mph 23.0 mph N/A   Clear
10:55 AM 71.6 °F 50.0 °F 46% 29.98 in 10.0 mi South 20.7 mph 31.1 mph N/A   Clear
11:15 AM 71.6 °F 50.0 °F 46% 29.97 in 10.0 mi South 23.0 mph 31.1 mph N/A   Clear
11:35 AM 73.4 °F 50.0 °F 44% 29.97 in 10.0 mi South 21.9 mph 32.2 mph N/A   Clear
11:55 AM 75.2 °F 48.2 °F 38% 29.96 in 10.0 mi South 25.3 mph 35.7 mph N/A   Clear
12:15 PM 75.2 °F 48.2 °F 38% 29.94 in 10.0 mi South 20.7 mph 36.8 mph N/A   Clear
12:35 PM 77.0 °F 48.2 °F 36% 29.92 in 10.0 mi South 28.8 mph 36.8 mph N/A   Clear
12:55 PM 77.0 °F 46.4 °F 34% 29.91 in 10.0 mi South 31.1 mph 36.8 mph N/A   Clear
1:15 PM 77.0 °F 46.4 °F 34% 29.89 in 10.0 mi South 28.8 mph 34.5 mph N/A   Clear
1:35 PM 78.8 °F 46.4 °F 32% 29.88 in 10.0 mi South 28.8 mph 41.4 mph N/A   Clear
2:15 PM 78.8 °F 42.8 °F 28% 29.84 in 10.0 mi South 31.1 mph 40.3 mph N/A   Clear
2:35 PM 77.0 °F 42.8 °F 29% 29.84 in 10.0 mi South 27.6 mph 40.3 mph N/A   Clear
3:15 PM 77.0 °F 41.0 °F 28% 29.83 in 10.0 mi South 24.2 mph 31.1 mph N/A   Clear
3:35 PM 77.0 °F 39.2 °F 26% 29.83 in 10.0 mi South 25.3 mph 32.2 mph N/A   Clear
3:55 PM 77.0 °F 39.2 °F 26% 29.80 in 10.0 mi South 25.3 mph 34.5 mph N/A   Clear
4:15 PM 78.8 °F 39.2 °F 24% 29.80 in 10.0 mi South 18.4 mph 32.2 mph N/A   Clear
4:35 PM 77.0 °F 39.2 °F 26% 29.78 in 10.0 mi South 20.7 mph 31.1 mph N/A   Clear
4:55 PM 75.2 °F 37.4 °F 25% 29.78 in 10.0 mi South 24.2 mph 31.1 mph N/A   Clear
5:15 PM 75.2 °F 37.4 °F 25% 29.78 in 10.0 mi South 24.2 mph 32.2 mph N/A   Clear
5:35 PM 75.2 °F 39.2 °F 27% 29.78 in 10.0 mi South 21.9 mph 27.6 mph N/A   Clear
5:55 PM 73.4 °F 39.2 °F 29% 29.76 in 10.0 mi South 18.4 mph 24.2 mph N/A   Clear
6:15 PM 73.4 °F 39.2 °F 29% 29.77 in 10.0 mi South 20.7 mph 32.2 mph N/A   Clear
6:35 PM 71.6 °F 39.2 °F 31% 29.79 in 10.0 mi South 16.1 mph - N/A   Clear
6:55 PM 71.6 °F 39.2 °F 31% 29.80 in 10.0 mi South 16.1 mph 24.2 mph N/A   Clear
7:15 PM 71.6 °F 39.2 °F 31% 29.80 in 10.0 mi South 16.1 mph 21.9 mph N/A   Clear
7:35 PM 71.6 °F 41.0 °F 33% 29.81 in 10.0 mi South 15.0 mph 20.7 mph N/A   Clear
7:55 PM 69.8 °F 41.0 °F 35% 29.81 in 10.0 mi South 12.7 mph - N/A   Clear
8:15 PM 69.8 °F 42.8 °F 38% 29.80 in 10.0 mi South 13.8 mph 19.6 mph N/A   Clear
8:35 PM 68.0 °F 44.6 °F 43% 29.80 in 10.0 mi South 18.4 mph - N/A   Clear
8:55 PM 68.0 °F 44.6 °F 43% 29.80 in 10.0 mi South 17.3 mph 21.9 mph N/A   Clear
9:15 PM 68.0 °F 46.4 °F 46% 29.79 in 10.0 mi South 18.4 mph 26.5 mph N/A   Clear
9:35 PM 68.0 °F 46.4 °F 46% 29.79 in 10.0 mi South 17.3 mph - N/A   Clear
9:55 PM 66.2 °F 48.2 °F 52% 29.79 in 10.0 mi South 17.3 mph - N/A   Clear
10:15 PM 66.2 °F 50.0 °F 56% 29.79 in 10.0 mi South 15.0 mph - N/A   Clear
10:35 PM 68.0 °F 51.8 °F 56% 29.79 in 10.0 mi South 19.6 mph 25.3 mph N/A   Clear
10:55 PM 68.0 °F 51.8 °F 56% 29.79 in 10.0 mi SSW 21.9 mph 28.8 mph N/A   Clear
11:15 PM 68.0 °F 51.8 °F 56% 29.79 in 10.0 mi SSW 20.7 mph 28.8 mph N/A   Clear
11:35 PM 68.0 °F 51.8 °F 56% 29.79 in 10.0 mi SSW 20.7 mph 28.8 mph N/A   Clear
11:55 PM 68.0 °F 51.8 °F 56% 29.79 in 10.0 mi SSW 18.4 mph 25.3 mph N/A   Scattered Clouds